RUZAEVKA 390 (RS44S)

Last updated on Fri May 09 2025 00:03:04 GMT+0000 (Coordinated Universal Time)

1 61766U 24199AH 25128.54608617 .00031216 00000+0 81792-3 0 9998 2 61766 97.3593 358.2722 0008256 291.0872 68.9490 15.38602267 72097
UTC large
Height (km)
Speed (km/s)
/
Latitude / Longitude
Inclination (degrees)
Orbital Period (minutes)
Azimuth
Elevation
Range (km)
Doppler Factor

Next 0 passes for location: London (51.5072 / 0.1276)

Sorry there are no passes over London.